Weather History for Cape Cod CGAS, MA

Change the Weather History Date:

Thursday, December 6, 2012

  Actual Average Record
Temperature  
Mean Temperature 28 °F -  
Max Temperature 38 °F 43 °F 64 °F (2001)
Min Temperature 19 °F 28 °F 15 °F (2006)
Degree Days  
Heating Degree Days 36    
Moisture  
Dew Point 19 °F    
Average Humidity 65    
Maximum Humidity 93    
Minimum Humidity 46    
Precipitation  
Precipitation 0.00 in - - ()
Sea Level Pressure  
Sea Level Pressure 30.26 in    
Wind  
Wind Speed 8 mph (NNW)    
Max Wind Speed 17 mph    
Max Gust Speed 23 mph    
Visibility 10 miles    
Events      
Averages and records for this station are not official NWS values.
T = Trace of Precipitation, MM = Missing Value Source: NWS Daily Summary

Daily Weather History Graph

Daily Weather History Graph

Search for Another Location

Airport:

Trip Planner

Search our weather history database for the weather conditions in past years. The results will help you decide how hot, cold, wet, or windy it might be!

Date:

Astronomy

Dec. 06, 2012 Rise Set
Actual Time 6:54 AM EST 4:11 PM EST
Civil Twilight 6:23 AM EST 4:42 PM EST
Nautical Twilight 5:48 AM EST 5:17 PM EST
Astronomical Twilight 5:15 AM EST 5:51 PM EST
Moon No Moon Rise 11:41 AM EST (12/6)
Length of Visible Light 10h 19m
Length of Day
9h 16m
Waning Gibbous, 49% of the Moon is Illuminated
Dec 6
Waning Gibbous
Dec 13
New
Dec 20
First Quarter
Dec 28
Full
Jan 4
Last Quarter

Hourly Weather History & Observations

Time (EST) Temp. Windchill Dew Point Humidity Pressure Visibility Wind Dir Wind Speed Gust Speed Precip Events Conditions
12:15 AM 35.6 °F 27.1 °F 17.6 °F 48% 30.11 in 10.0 mi NW 12.7 mph 21.9 mph N/A   Clear
12:35 AM 35.6 °F 26.6 °F 17.6 °F 48% 30.10 in 10.0 mi NW 13.8 mph 20.7 mph N/A   Clear
12:55 AM 33.8 °F 26.4 °F 17.6 °F 52% 30.12 in 10.0 mi NNW 9.2 mph - N/A   Clear
1:15 AM 32.0 °F 20.8 °F 17.6 °F 55% 30.14 in 10.0 mi NNW 17.3 mph 23.0 mph N/A   Clear
1:35 AM 32.0 °F 24.8 °F 15.8 °F 51% 30.15 in 10.0 mi NNW 8.1 mph 17.3 mph N/A   Clear
1:55 AM 32.0 °F 24.8 °F 15.8 °F 51% 30.17 in 10.0 mi NNW 8.1 mph - N/A   Clear
2:15 AM 32.0 °F 22.5 °F 14.0 °F 48% 30.17 in 10.0 mi NNW 12.7 mph 19.6 mph N/A   Clear
2:35 AM 32.0 °F 24.2 °F 14.0 °F 48% 30.17 in 10.0 mi NNW 9.2 mph - N/A   Clear
2:55 AM 30.2 °F 21.9 °F 14.0 °F 51% 30.18 in 10.0 mi NW 9.2 mph - N/A   Clear
3:15 AM 30.2 °F 24.3 °F 15.8 °F 55% 30.17 in 10.0 mi NNW 5.8 mph - N/A   Clear
3:35 AM 28.4 °F 21.2 °F 15.8 °F 59% 30.17 in 10.0 mi NNW 6.9 mph - N/A   Clear
3:55 AM 28.4 °F 21.2 °F 15.8 °F 59% 30.18 in 10.0 mi NW 6.9 mph - N/A   Clear
4:15 AM 28.4 °F 20.4 °F 15.8 °F 59% 30.19 in 10.0 mi NW 8.1 mph - N/A   Clear
4:35 AM 28.4 °F 22.2 °F 15.8 °F 59% 30.19 in 10.0 mi NW 5.8 mph - N/A   Clear
4:55 AM 26.6 °F 20.0 °F 15.8 °F 64% 30.21 in 10.0 mi NW 5.8 mph - N/A   Clear
5:15 AM 28.4 °F 22.2 °F 15.8 °F 59% 30.22 in 10.0 mi NW 5.8 mph - N/A   Clear
5:35 AM 26.6 °F 21.2 °F 15.8 °F 64% 30.23 in 10.0 mi NW 4.6 mph - N/A   Clear
5:55 AM 26.6 °F 20.0 °F 15.8 °F 64% 30.24 in 10.0 mi NW 5.8 mph - N/A   Clear
6:15 AM 26.6 °F 19.1 °F 15.8 °F 64% 30.25 in 10.0 mi WNW 6.9 mph - N/A   Clear
6:35 AM 24.8 °F 16.9 °F 17.6 °F 74% 30.27 in 10.0 mi WNW 6.9 mph - N/A   Clear
6:55 AM 26.6 °F 18.2 °F 17.6 °F 69% 30.27 in 10.0 mi NW 8.1 mph - N/A   Clear
7:15 AM 26.6 °F 19.1 °F 17.6 °F 69% 30.27 in 10.0 mi NW 6.9 mph - N/A   Clear
7:35 AM 26.6 °F 19.1 °F 17.6 °F 69% 30.27 in 10.0 mi NW 6.9 mph - N/A   Clear
7:55 AM 28.4 °F 20.4 °F 17.6 °F 64% 30.27 in 10.0 mi NW 8.1 mph - N/A   Clear
8:35 AM 32.0 °F 23.6 °F 17.6 °F 55% 30.28 in 10.0 mi NNW 10.4 mph 17.3 mph N/A   Clear
8:55 AM 32.0 °F 23.0 °F 17.6 °F 55% 30.29 in 10.0 mi NNW 11.5 mph - N/A   Clear
9:15 AM 32.0 °F 23.6 °F 17.6 °F 55% 30.29 in 10.0 mi NW 10.4 mph - N/A   Clear
9:35 AM 32.0 °F 23.0 °F 19.4 °F 60% 30.30 in 10.0 mi NNW 11.5 mph 18.4 mph N/A   Clear
9:55 AM 33.8 °F 25.8 °F 19.4 °F 56% 30.30 in 10.0 mi North 10.4 mph 18.4 mph N/A   Clear
10:15 AM 33.8 °F 24.8 °F 19.4 °F 56% 30.29 in 10.0 mi North 12.7 mph 18.4 mph N/A   Clear
10:35 AM 33.8 °F 26.4 °F 19.4 °F 56% 30.29 in 10.0 mi NNW 9.2 mph - N/A   Clear
10:55 AM 35.6 °F 27.5 °F 19.4 °F 52% 30.29 in 10.0 mi NE 11.5 mph - N/A   Clear
11:15 AM 35.6 °F 28.6 °F 21.2 °F 56% 30.28 in 10.0 mi North 9.2 mph - N/A   Clear
11:35 AM 35.6 °F 29.2 °F 21.2 °F 56% 30.28 in 10.0 mi NNE 8.1 mph - N/A   Clear
11:55 AM 37.4 °F 31.4 °F 19.4 °F 48% 30.28 in 10.0 mi North 8.1 mph - N/A   Clear
12:15 PM 37.4 °F 30.8 °F 19.4 °F 48% 30.27 in 10.0 mi North 9.2 mph - N/A   Clear
12:35 PM 37.4 °F 32.1 °F 19.4 °F 48% 30.25 in 10.0 mi North 6.9 mph - N/A   Clear
12:55 PM 37.4 °F 32.1 °F 19.4 °F 48% 30.25 in 10.0 mi North 6.9 mph - N/A   Clear
1:15 PM 37.4 °F 32.1 °F 19.4 °F 48% 30.25 in 10.0 mi North 6.9 mph - N/A   Clear
1:35 PM 37.4 °F 30.3 °F 23.0 °F 56% 30.25 in 10.0 mi ENE 10.4 mph - N/A   Clear
1:55 PM 37.4 °F 30.8 °F 21.2 °F 52% 30.26 in 10.0 mi ENE 9.2 mph - N/A   Clear
2:15 PM 37.4 °F 31.4 °F 21.2 °F 52% 30.26 in 10.0 mi North 8.1 mph - N/A   Clear
2:35 PM 37.4 °F 32.8 °F 21.2 °F 52% 30.27 in 10.0 mi NNE 5.8 mph - N/A   Clear
2:55 PM 37.4 °F 32.8 °F 21.2 °F 52% 30.27 in 10.0 mi NE 5.8 mph - N/A   Clear
3:15 PM 37.4 °F 32.8 °F 21.2 °F 52% 30.28 in 10.0 mi NNE 5.8 mph - N/A   Clear
3:35 PM 35.6 °F 30.7 °F 21.2 °F 56% 30.29 in 10.0 mi NE 5.8 mph - N/A   Clear
3:55 PM 33.8 °F 29.6 °F 21.2 °F 60% 30.30 in 10.0 mi NE 4.6 mph - N/A   Clear
4:15 PM 32.0 °F - 21.2 °F 64% 30.30 in 10.0 mi Calm Calm - N/A   Clear
4:35 PM 32.0 °F - 21.2 °F 64% 30.30 in 10.0 mi Calm Calm - N/A   Clear
4:55 PM 30.2 °F - 21.2 °F 69% 30.30 in 10.0 mi Calm Calm - N/A   Clear
5:15 PM 28.4 °F - 21.2 °F 74% 30.30 in 10.0 mi Calm Calm - N/A   Clear
5:35 PM 28.4 °F - 23.0 °F 80% 30.30 in 10.0 mi Calm Calm - N/A   Clear
5:55 PM 26.6 °F - 21.2 °F 80% 30.30 in 10.0 mi Calm Calm - N/A   Clear
6:15 PM 26.6 °F - 21.2 °F 80% 30.30 in 10.0 mi Calm Calm - N/A   Clear
6:35 PM 24.8 °F 20.5 °F 21.2 °F 86% 30.31 in 10.0 mi WSW 3.5 mph - N/A   Clear
6:55 PM 24.8 °F - 19.4 °F 80% 30.31 in 10.0 mi Calm Calm - N/A   Clear
7:15 PM 24.8 °F - 21.2 °F 86% 30.31 in 10.0 mi Calm Calm - N/A   Clear
7:35 PM 23.0 °F - 19.4 °F 86% 30.30 in 10.0 mi Calm Calm - N/A   Clear
7:55 PM 23.0 °F - 19.4 °F 86% 30.30 in 10.0 mi Calm Calm - N/A   Clear
8:15 PM 23.0 °F - 19.4 °F 86% 30.31 in 10.0 mi Calm Calm - N/A   Clear
8:35 PM 23.0 °F - 19.4 °F 86% 30.31 in 10.0 mi Calm Calm - N/A   Clear
8:55 PM 21.2 °F - 19.4 °F 93% 30.31 in 10.0 mi Calm Calm - N/A   Clear
9:15 PM 23.0 °F - 19.4 °F 86% 30.32 in 10.0 mi Calm Calm - N/A   Clear
9:35 PM 23.0 °F - 21.2 °F 93% 30.31 in 10.0 mi Calm Calm - N/A   Clear
9:55 PM 23.0 °F - 19.4 °F 86% 30.32 in 10.0 mi Calm Calm - N/A   Unknown
10:15 PM 19.4 °F - 17.6 °F 93% 30.32 in 10.0 mi Calm Calm - N/A   Clear
10:35 PM 19.4 °F - 17.6 °F 93% 30.32 in 10.0 mi Calm Calm - N/A   Clear
10:55 PM 19.4 °F - 17.6 °F 93% 30.32 in 10.0 mi Calm Calm - N/A   Clear
11:15 PM 19.4 °F - 17.6 °F 93% 30.31 in 10.0 mi Calm Calm - N/A   Clear
11:35 PM 19.4 °F - 17.6 °F 93% 30.31 in 10.0 mi Calm Calm - N/A   Clear
11:55 PM 21.2 °F - 19.4 °F 93% 30.31 in 10.0 mi Calm Calm - N/A   Clear